Regional Weather Roundup
Issued by NWS

Home | Current Version | Previous Version | Graphics & Text | Print | Product List | Glossary On
Versions: 1 2 3 4 5 6 7 8 9 10 11 12 13 14 15 16 17 18 19 20 21 22 23 24 25 26 27
000
ASUS45 KBOU 291710
RWRCO

WEATHER ROUNDUP FOR COLORADO
NATIONAL WEATHER SERVICE DENVER/BOULDER CO
1100 AM MDT THU SEP 29 2016

NOTE: "FAIR" INDICATES FEW OR NO CLOUDS BELOW 12000 FEET WITH NO
SIGNIFICANT WEATHER AND/OR OBSTRUCTIONS TO VISIBILITY.

COZ001>005-013-030-031-291800-
...NORTHWEST COLORADO...

CITY           SKY/WX    TMP DP  RH WIND       PRES   REMARKS
CRAIG          FAIR      66  40  38 W10       30.45S
HAYDEN         FAIR      59  34  38 W6        30.45S
MEEKER         FAIR      63  45  51 CALM      30.44F
MOUNT WERNER   NOT AVBL
STEAMBOAT SPGS FAIR      59  36  41 N5        30.45F
WALDEN           N/A     64  30  27 CALM      30.52F
$$

COZ006>008-011-291800-
...WEST CENTRAL VALLEYS...

CITY           SKY/WX    TMP DP  RH WIND       PRES   REMARKS
GRAND JUNCTION LGT RAIN  59  56  89 NW5       30.41R
MONTROSE       PTSUNNY   64  44  48 NE3       30.44F
EAGLE          SUNNY     63  30  29 CALM      30.47F
RIFLE          PTSUNNY   64  41  42 NW7       30.40F
DELTA          NOT AVBL
NUCLA          CLOUDY    57  50  77 NW8       30.49S
$$

COZ017>023-064>068-291800-
...SOUTHWEST COLORADO...

CITY           SKY/WX    TMP DP  RH WIND       PRES   REMARKS
DURANGO        LGT RAIN  54  50  86 S5        30.54S
CORTEZ         CLOUDY    62  47  57 S13G21    30.46S
PAGOSA SPRINGS PTSUNNY   60  32  35 W3        30.58R
TELLURIDE      CLOUDY    52  39  61 S8G17     30.63S
WOLF CREEK PAS PTSUNNY   43  28  56 SW13G24   30.81S
$$

COZ009-010-012-014-032>034-037-058>063-291800-
...CENTRAL COLORADO...

CITY           SKY/WX    TMP DP  RH WIND       PRES   REMARKS
ASPEN          FAIR      65  34  31 N8        30.48F
BUENA VISTA    FAIR      61  27  27 CALM      30.54F
COPPER MTN     FAIR      59  23  25 S7G18     30.77S
BERTHOUD PASS  FAIR      48  34  57 SE8G18    30.79F
COTTONWOOD PAS FAIR      61  25  25 CALM      30.64F
GUNNISON       FAIR      61  31  32 E3        30.54F
KREMMLING      FAIR      61  25  25 CALM      30.51F
LEADVILLE      FAIR      55  25  31 S7        30.62F
MONARCH PASS   PTSUNNY   50  27  40 SW13G22   30.88R
SALIDA         FAIR      64  28  25 CALM      30.59F
SUNLIGHT       CLOUDY    52  36  54 SW3       30.71S
WILKERSON PASS FAIR      50  25  37 SW8       30.76S
$$

COZ069>075-291800-
...SAN LUIS VALLEY/SANGRE DE CRISTO MOUNTAINS...

CITY           SKY/WX    TMP DP  RH WIND       PRES   REMARKS
ALAMOSA        CLOUDY    60  28  29 VRB3      30.55F
LA VETA PASS   FAIR      59  30  33 MISG      30.69S
SAGUACHE       NOT AVBL
$$

COZ035-036-038>040-291800-
...NORTHERN COLORADO FRONT RANGE...

CITY           SKY/WX    TMP DP  RH WIND       PRES   REMARKS
DENVER INTL AP FAIR      70  38  31 CALM      30.36F
DMNS CITY PARK   N/A     70  35  27 NW1       30.35S
AURORA         MOSUNNY   71  37  28 VRB1      30.36F
FRONT RANGE AP MOSUNNY   72  37  28 CALM      30.37F
ERIE MUNI ARPT FAIR      67  36  32 E3        30.35F
BOULDER MUN AP FAIR      68  39  34 E3        30.35S
CENTENNIAL     FAIR      72  37  28 N3        30.37F
BROOMFIELD     MOSUNNY   66  37  34 S3        30.38S
FORT COLLINS   FAIR      63  39  42 NE3       30.35F
LONGMONT       FAIR      69  41  36 SE3       30.36S
$$

COZ041-046-047-076>085-087-088-291800-
...PIKES PEAK/PALMER DIVIDE AND SOUTHERN FOOTHILLS...

CITY           SKY/WX    TMP DP  RH WIND       PRES   REMARKS
COLO. SPRINGS  FAIR      64  38  38 S5        30.44F
A. F. ACADEMY  FAIR      65  40  39 S8        30.44F
SCHRIEVER AFB  NOT AVBL
ELLICOTT       NOT AVBL
FALCON         FAIR      65  36  34 S5        30.48S
FORT CARSON    FAIR      63  40  42 S5        30.42F
LIMON          FAIR      67  42  40 SE16G23   30.41F
MONUMENT HILL  FAIR      72  30  21 S9        30.46F
TRINIDAD       FAIR      73  32  22 E7        30.43F
$$

COZ042>045-048>051-090-091-291800-
...NORTHEAST COLORADO...

CITY           SKY/WX    TMP DP  RH WIND       PRES   REMARKS
GREELEY ARPT   FAIR      63  43  48 E3        30.36S
AKRON          FAIR      70  40  33 SE21      30.37F
BURLINGTON     FAIR      68  38  33 S18       30.41F
WRAY           NOT AVBL
STERLING       FAIR      72  45  37 S12       30.34F
HOLYOKE        FAIR      72  39  30 S12G17    30.39F HAZE
FORT MORGAN    FAIR      71  40  32 SE8       30.36F
$$

COZ086-089-092>099-291800-
...SOUTHEAST COLORADO...

CITY           SKY/WX    TMP DP  RH WIND       PRES   REMARKS
PUEBLO         FAIR      65  41  41 SE5       30.39F
LA JUNTA       FAIR      65  43  44 S3        30.38F
LAMAR          FAIR      73  43  33 S16       30.37F
SPRINGFIELD      N/A     67  45  45 S16G25    30.43S
$$




USA.gov is the U.S. government's official web portal to all federal, state and local government web resources and services.